Location: First United Methodist Church
(46.7325°N, 116.9975°W)
Time: 04:42:52
(UTC+00:00)

Daily predictions for brighter satellites

Satellite Brightness Start Highest point End
(mag) Time Altitude Azimuth Time Altitude Azimuth Time Altitude Azimuth
Cosmos 1697 Rocket 4.0 00:28:22 10° SSE 00:32:30 22° E 00:36:40 10° NE
Cosmos 1782 2.9 00:32:01 10° SSE 00:35:26 44° E 00:38:53 10° NNE
CZ-2D R/B 4.1 00:33:20 10° ESE 00:35:37 19° ENE 00:37:57 10° NNE
Cosmos 2228 3.0 00:31:35 10° S 00:35:49 89° E 00:40:05 10° N
Iridium 51 3.7 00:35:00 10° S 00:38:06 89° W 00:41:18 10° N
YAOGAN 1 4.4 00:37:39 10° ENE 00:38:41 11° ENE 00:39:44 10° NE
NOSS 2-2 (D) 2.7 00:37:45 10° SW 00:41:10 86° NW 00:44:12 10° NE
SMAP 3.3 00:37:47 10° SE 00:42:14 47° ENE 00:46:42 10° N
UNK 4.1 00:39:37 10° NNE 00:44:01 44° E 00:48:21 10° S
Gbstr 26 Del rocket 4.2 00:44:09 10° SSW 00:47:36 25° SE 00:50:47 10° E
Landsat 7 4.1 00:43:15 10° SE 00:47:37 41° ENE 00:51:59 10° N
Cosmos 1570 Rocket 4.3 00:43:36 10° NNW 00:48:58 79° WSW 00:54:15 10° SSE
Cosmos 1743 2.5 00:46:46 10° N 00:49:55 46° ENE 00:53:03 10° SSE
BREEZE-M DEB (TANK) 2.6 00:47:43 10° WNW 00:50:22 60° N 00:57:26 10° E
Lacrosse 4 Rocket 3.3 00:48:22 10° W 00:51:37 23° NW 00:54:52 10° N
Meteor 1-20 Rocket 4.4 00:46:25 10° N 00:51:42 47° ENE 00:56:57 10° SSE
Cosmos 1315 Rocket 4.0 00:48:16 10° SSW 00:51:54 42° WNW 00:55:35 10° N
Cosmos 1634 Rocket 4.3 00:45:52 10° SSW 00:52:02 74° W 00:58:14 10° N
NOSS 2-2 (E) 2.8 00:53:28 10° SW 00:56:52 74° NW 00:59:41 11° NE
Cosmos 1486 Rocket 4.0 00:52:03 10° S 00:57:13 70° ESE 01:02:26 10° NNE
Cosmos 1656 3.7 00:52:27 10° SSW 00:58:04 88° WNW 01:03:48 10° NNE
Cosmos 1867 3.8 00:54:37 10° NNW 00:59:54 47° NE 01:05:08 10° ESE
Cosmos 1825 Rocket 4.2 00:58:24 10° N 01:02:17 31° ENE 01:06:09 10° SE
Cosmos 773 Rocket 4.1 00:58:58 10° NNW 01:04:12 81° WSW 01:09:26 10° SSE
Cosmos 1758 Rocket 3.6 01:00:29 10° NNW 01:04:48 79° W 01:09:04 10° S
Cosmos 2151 2.9 01:01:25 10° N 01:05:33 62° E 01:09:41 10° SSE
Cosmos 2279 Rocket 4.1 00:59:52 10° S 01:06:05 82° W 01:12:22 10° N
Cosmos 2098 Rocket 3.0 01:02:12 10° S 01:06:13 85° E 01:11:00 10° N
Cosmos 2297 Rocket 2.2 01:04:11 10° NNW 01:09:53 89° ENE 01:15:33 10° SSE
IRIDIUM 106 4.3 01:04:42 10° N 01:09:55 65° E 01:15:05 10° SSE
CENTAUR R/B 3.7 01:08:28 10° W 01:13:56 35° NNW 01:20:40 10° NE
Cosmos 990 Rocket 4.4 01:10:59 10° S 01:15:43 39° ESE 01:19:42 14° NE
ARIANE 5 R/B 2.4 01:12:12 10° SSE 01:17:14 78° ENE 01:22:22 10° NNW
IRS-P3 4.1 01:14:49 10° SSE 01:20:02 59° ENE 01:25:16 10° N
Meteor 1-28 Rocket 4.3 01:17:14 10° N 01:20:23 38° WNW 01:23:30 10° SW
Cosmos 2058 Rocket 4.5 01:17:46 10° SE 01:20:44 19° E 01:20:44 19° E
BlueWalker 3 3.5 01:17:36 10° WNW 01:20:55 34° SW 01:24:13 10° SSE
Cosmos 1933 3.3 01:18:37 10° S 01:22:19 52° E 01:25:53 11° NNE
SJ-12 3.6 01:21:15 10° SSE 01:25:01 82° ENE 01:28:50 10° NNW
USA 238 DEB 4.3 01:21:36 10° S 01:26:46 30° ESE 01:29:47 21° ENE
USA 238 4.3 01:21:44 10° S 01:26:52 30° ESE 01:29:52 21° ENE
Cosmos 2219 4.1 01:22:14 10° N 01:27:04 27° NE 01:29:28 21° E
Meteor 1-25 Rocket 4.2 01:22:11 10° N 01:28:01 73° ENE 01:33:47 10° SSE
SPOT 1/Viking Rocket 3.7 01:23:28 10° SE 01:28:26 48° ENE 01:33:26 10° N
Cosmos 1076 Rocket 3.9 01:25:47 10° N 01:29:49 38° ENE 01:33:50 10° SE
Cosmos 2084 Rocket 3.3 01:26:04 10° NW 01:30:18 84° NE 01:34:31 10° SE
Cosmos 1607 4.2 01:24:53 10° NW 01:31:07 76° WSW 01:37:23 10° SSE
AQUARIUS 4.0 01:29:13 10° SSE 01:33:38 85° ENE 01:38:04 10° NNW
Meteor 1-5 Rocket 4.2 01:28:57 10° N 01:34:11 53° ENE 01:39:31 10° SSE
CZ-4C R/B 3.0 01:27:13 10° NW 01:34:15 89° NE 01:43:00 10° SE
Cosmos 1980 Rocket 3.0 01:30:06 10° SSE 01:34:58 31° ESE 01:36:57 25° ENE
Cosmos 1606 Rocket 3.5 01:31:25 10° S 01:35:47 70° E 01:40:11 10° NNE
USA 215 4.0 01:32:13 20° ENE 01:36:04 37° N 01:41:58 10° WNW
CZ-2D R/B 3.8 01:32:38 10° SE 01:36:35 42° ENE 01:40:31 10° N
Lacrosse 5 rocket 2.9 01:33:50 10° WNW 01:36:36 19° NNW 01:37:56 16° NNE
PSLV R/B 4.1 01:37:15 30° ENE 01:37:17 30° ENE 01:40:51 10° N
MOS 1 Rocket 3.4 01:33:38 10° SSE 01:38:30 88° ENE 01:43:41 10° NNW
Cosmos 1844 Rocket 4.5 01:37:01 10° N 01:39:14 14° NNE 01:39:14 14° NNE
BREEZE M DEB (TANK) 3.7 01:29:49 10° WNW 01:40:44 62° SW 01:43:48 13° SE
COSMO-SKYMED 1 3.1 01:40:54 31° E 01:41:11 32° E 01:44:52 10° SSE
Cosmos 1461 2.9 01:39:05 10° SW 01:42:57 67° NW 01:45:01 26° NNE
Cosmos 2266 Rocket 4.1 01:36:50 10° NNW 01:42:59 75° W 01:49:01 10° S
Resurs 1-3 3.8 01:41:58 10° SE 01:46:01 43° ENE 01:50:06 10° N
Cosmos 2263 Rocket 2.4 01:42:09 10° NNW 01:47:40 49° ENE 01:52:20 14° SE
GEOS 3 Rocket 4.4 01:44:49 15° NNE 01:49:02 49° NW 01:54:11 10° WSW
Cosmos 1900 4.5 01:44:06 10° NW 01:49:10 77° WSW 01:54:05 10° SSE
NOSS 2-3 (E) 3.2 01:49:24 10° SSW 01:53:00 56° SE 01:53:30 51° E
Cosmos 1538 Rocket 4.1 01:49:06 10° NNW 01:54:16 52° ENE 01:59:08 12° SE
NOSS 2-3 (D) 3.2 01:51:08 10° SSW 01:54:45 54° SE 01:55:07 51° E
Okean 1-7 Rocket 4.3 01:52:24 10° NNW 01:56:41 53° W 02:00:55 10° S
Cosmos 1726 Rocket 3.6 01:56:10 10° S 02:00:49 88° WNW 02:04:41 15° N
SL-16 R/B 4.2 01:55:48 10° N 02:01:02 30° WNW 02:06:16 10° WSW
Cosmos 2227 Rocket 2.2 01:55:26 10° NNW 02:01:06 83° WSW 02:06:45 10° SSE
BREEZE M DEB (TANK) 3.1 01:59:30 10° WSW 02:00:58 36° W 02:00:58 36° W
ATLAS CENTAUR R/B 4.1 02:00:32 10° W 02:02:11 13° WSW 02:03:49 10° SW
Cosmos 1553 Rocket 4.3 01:58:19 10° SSE 02:03:59 41° E 02:05:47 33° NE
BREEZE-M DEB (TANK) 3.9 02:02:33 10° WNW 02:06:12 77° NNE 02:11:00 29° E
SKYMED 2 3.5 02:05:40 26° NNE 02:08:09 88° WNW 02:12:30 10° SSW
Cosmos 1354 Rocket 4.4 02:06:14 10° SW 02:11:27 61° WNW 02:15:12 19° NNE
YAOGAN 1 2.4 02:09:33 10° SSE 02:13:49 86° ENE 02:18:06 10° NNW
Meteor 2-2 Rocket 4.3 02:08:25 10° S 02:13:53 53° E 02:15:07 45° NE
SL-19 R/B 4.1 02:10:03 10° SSE 02:15:23 77° ENE 02:21:02 10° NNW
Spot 4 Rocket 3.9 02:10:48 10° SSE 02:15:54 90° SSW 02:21:03 10° NNW
Cosmos 1697 Rocket 3.0 02:10:23 10° SW 02:15:56 63° WNW 02:19:25 23° NNE
NOSS 3-2 (C) 3.9 02:12:05 10° WSW 02:17:04 49° NW 02:20:08 26° NNE
Cosmos 1898 Rocket 3.6 02:20:06 10° S 02:24:30 52° SE 02:24:30 52° SE
Cosmos 1244 Rocket 4.3 02:19:31 10° N 02:25:51 74° E 02:32:02 10° SSE
IRAS Rocket 4.1 02:20:52 10° SSE 02:26:22 89° W 02:31:52 10° NNW
Cosmos-2242 3.6 02:24:02 10° S 02:27:01 45° S 02:27:01 45° S
Cosmos 1953 Rocket 4.2 02:25:12 10° NNW 02:29:33 57° W 02:33:54 10° S
BREEZE-M DEB (TANK) 4.1 02:07:11 10° W 02:32:48 84° NNE 02:35:04 49° E
Meteor 2-10 4.1 02:28:08 10° NNW 02:33:30 80° W 02:39:02 10° S
Gbstr 26 Del rocket 3.4 02:29:42 10° WSW 02:32:49 51° W 02:32:49 51° W
SL-08 R/B 4.4 02:37:07 10° N 02:43:29 83° E 02:49:49 10° S
Cosmos 372 Rocket 3.9 02:40:49 10° SSW 02:45:54 80° W 02:45:54 80° W
Cosmos 2082 3.8 02:41:39 10° NNW 02:46:32 62° N 02:46:32 62° N
Meteor 1-26 Rocket 4.1 02:44:08 10° SSW 02:49:33 78° W 02:50:07 69° NNW
Aureole 1 Rocket 3.6 02:45:28 10° SSW 02:49:31 65° W 02:49:31 65° W
Cosmos 2058 Rocket 4.1 02:54:04 10° SSW 02:57:56 45° W 02:57:56 45° W
CENTAUR R/B 4.4 03:01:39 10° NW 03:06:53 22° N 03:07:57 21° N
Cosmos 2219 3.6 03:05:57 10° NNW 03:11:27 61° WSW 03:11:27 61° WSW
USA 238 DEB 3.8 03:11:06 10° SW 03:17:11 61° NW 03:17:15 61° NW
USA 238 3.8 03:11:11 10° SW 03:17:17 62° NW 03:17:20 62° NW
USA 215 3.7 03:19:33 50° NNW 03:19:33 50° NNW 03:24:47 10° NW
Cosmos 1980 Rocket 3.0 03:13:19 10° SW 03:18:45 46° WNW 03:18:45 46° WNW
Cosmos 2263 Rocket 3.9 03:26:29 10° NW 03:31:18 29° WSW 03:34:12 19° SSW
SL-16 R/B 3.8 11:48:34 29° NE 11:49:03 29° NE 11:53:56 10° ESE
Cosmos 2082 Rocket 3.5 11:52:33 34° NE 11:52:33 34° NE 11:55:46 10° NNE
USA 59 Rocket 2.5 11:57:06 18° SE 11:57:06 18° SE 11:58:30 10° SE
